Location: Filler
(36.7551°N, 30.4456°E)
Time: 06:45:26
(UTC+00:00)

FENGYUN 3A - Pass Details

Date: 23 September 2024
Orbit: 821 x 835 km, 98.6° (Epoch: 12 October)

Event Time Altitude Azimuth Distance (km) Brightness Sun altitude
Rises 01:21:54 0° 357° (N) 3,363 7.1 -29.1°
Reaches altitude 10° 01:24:47 10° 342° (NNW) 2,424 6.1 -28.6°
Enters shadow 01:25:36 13° 335° (NNW) 2,201 5.8 -28.4°
